Orbital Elements
Epoch 2011 Aug. 27.0 TT = JDT 2455800.5
T 2011 Sept. 7.57951 TT MPC
q 0.8956239 (2000.0) P Q
z -0.0027136 Peri. 119.58166 -0.23338824 -0.80706212
+/-0.0005324 Node 324.79347 +0.15669867 +0.51928217
e 1.0024304 Incl. 70.18316 +0.95967466 -0.28106362
From 89 observations 2011 June 22-Aug. 2, mean residual 0".8.
|